BIRD 2

Last updated on July 6, 2021, 3:43 p.m. UTC

1 26959U 01049C   21186.74242774  .00002435  00000-0  65021-4 0  9992
2 26959  97.7946 251.4068 0008241 160.9510 199.2044 15.39190360399791
UTC
Height (km)
Latitude
Longitude
Inclination
Orbital Period
UTC large
Height (km)
Speed (km/s)
/
Latitude / Longitude
Inclination (degrees)
Orbital Period (minutes)
Azimuth
Elevation
Range (km)
Doppler Factor
iOS Compass Heading
iOS Angle